Tracking 19709 objects as of 18-Jun-2019
HD Live streaming from Space Station
objects crossing your sky now

FLOCK 3K 11

Track FLOCK 3K 11 now!
10-day predictions
FLOCK 3K 11 is classified as:


NORAD ID: 43904
Int'l Code: 2018-111AE
Perigee: 484.2 km
Apogee: 515.1 km
Inclination: 97.3 °
Period: 94.5 minutes
Semi major axis: 6870 km
RCS: Unknown
Launch date: December 27, 2018
Source: United States (US)
Launch site: VOSTOCHNY COSMODROME (VOSTO)
aabbcc
Your satellite tracking list
Your tracking list is empty




NASA's NSSDC Master Catalog

Two Line Element Set (TLE):
1 43904U 18111AE  19168.68583187  .00000687  00000-0  30695-4 0  9991
2 43904  97.2905  73.9600 0022465   0.6013 359.5248 15.24415527 26299
Source of the keplerian elements: AFSPC